LEMGLPFR

Guest
Details From LEMG - Malaga
To LPFR - Faro
Flight Number -
Tags generated
Created
Modified
Stats Distance 183 nm / 338 km
Max Altitude 22,900 ft / 6,980 m
Waypoints 3
Social Downloads 4
Likes 0
Share VATSIM

Download

Looking for another format? Having issues loading an existing format? Contact us
Advertisement - Login to hide

Notes

Basic altitude profile: - Ascent Rate: 2500ft/min - Ascent Speed: 250kts - Cruise Altitude: 35000ft - Cruise Speed: 420kts - Descent Rate: 1500ft/min - Descent Speed: 250kts

Route

LEMG VJF LPFR

ID Type Via Altitude Latitude Longitude Leg Dist Tot Dist Heading (true) Name
O LEMG APT - 0 ft / 0 m 36.67978˚ -4.49590˚ - 0 nm - Malaga
VJF VOR - 22,900 ft / 6,980 m 36.24718˚ -5.97187˚ 75 nm 75 nm 250° / 250° VEJER VOR-DME
O LPFR APT - 0 ft / 0 m 37.01534˚ -7.97233˚ 106 nm 182 nm 296° / 295° Faro

Altitude Profile

Advertisement - Login to hide

Weather


0- 5 10 15 20 25 30 35+ Temperature / ° C

Clouds and Precipitation
Forecast for 2018-05-22 12:00 UTC. Updated an hour ago

Ground ~20,000 ft ~40,000 ft Winds

LEMG

Details ICAO LEMG (AGP)
Name Malaga
Region Spain
Timezone Europe/Madrid (UTC+2.0)
Stats Elevation 52 ft / 16 m (AMSL)
Location 36.679780° -4.495899°
Runways 2
Magnetic Variation 0.827° W

METAR

LEMG 221200Z 12009KT 090V150 9999 FEW030 24/12 Q1014 NOSIG

Decode

TAF

TAF LEMG 221100Z 2212/2312 16006KT CAVOK TX23/2214Z TN14/2305Z

Decode

Departure Runways

ID Width Length Bearing (true) Bearing (mag) Surface Threshold Offset Overrun Length
12 148 ft / 45 m 10,057 ft / 3,065 m 117.76° 118.59° Asphalt 0 ft / 0 m 650 ft / 198 m
13 148 ft / 45 m 10,509 ft / 3,203 m 131.69° 132.52° Asphalt 0 ft / 0 m 246 ft / 75 m
30 148 ft / 45 m 10,057 ft / 3,065 m 297.78° 298.61° Asphalt 1,115 ft / 340 m 466 ft / 142 m
31 148 ft / 45 m 10,509 ft / 3,203 m 311.70° 312.53° Asphalt 0 ft / 0 m 246 ft / 75 m

LPFR

Details ICAO LPFR (FAO)
Name Faro
Region Portugal
Timezone Europe/Lisbon (UTC+1.0)
Stats Elevation 24 ft / 7 m (AMSL)
Location 37.015336° -7.972327°
Runways 1
Magnetic Variation 1.884° W

METAR

LPFR 221200Z VRB04KT 9999 FEW022 BKN030 19/11 Q1015

Decode

TAF

TAF LPFR 221100Z 2212/2312 20007KT 9999 BKN030 BECMG 2212/2215 24010KT FEW035 BECMG 2218/2220 28007KT SCT025 BECMG 2222/2224 33005KT CAVOK BECMG 2309/2312 24008KT

Decode

Destination Runways

ID Width Length Bearing (true) Bearing (mag) Surface Threshold Offset Overrun Length
10 148 ft / 45 m 8,148 ft / 2,484 m 100.08° 101.96° Asphalt 148 ft / 45 m 0 ft / 0 m
28 148 ft / 45 m 8,148 ft / 2,484 m 280.10° 281.98° Asphalt 148 ft / 45 m 0 ft / 0 m

Approach Navaids

Runway Type Ident Frequency Range Bearing (true) Bearing (mag) Slope Elevation
28 Localiser IIF 109.50 MHz 18 nm / 33 km 280.16° 282.05° - 24 ft / 7 m (AMSL)
28 Glidescope IIF 109.50 MHz 10 nm / 19 km 280.09° 281.97° 3.00° 24 ft / 7 m (AMSL)
28 DME IIF 109.50 MHz 18 nm / 33 km - - - 24 ft / 7 m (AMSL)

Popular Alternatives